OPS 4682 DEB, 15340

Orbit data source: Space-Track

OPS 4682 DEB, 15340 is space debris in LEO originally from a launch on Sat, 03 Apr 1965 UTC launched from the Air Force Western Test Range (AFWTR). Debris objects in space refer to the collection of defunct objects orbiting the Earth. Examples of debris include non-operational satellites, rocket bodies, and fragments generated from explosions, collisions, or faulty payload assembly.

Loading next visibility...
Identifier
15340, 1965-027R
Orbit
LEO
Country
Flag of USUS
Related business
Manufacturer
Unknown
Mission
Spacecraft
Bus & Motor
Unknown
Mass
Unknown
Launch date (UTC)
1965-04-03 (61 years ago)
Launch vehicle
Unknown
Launch site
Air Force Western Test Range (AFWTR)
Object type
Payload
Rocket body
Debris
Shape & HBR
Unknown shape, 0.1 m
Radar Cross Section
Medium (>0.1 m² and <1 m²)

Expand to show TLE details & history
Last TLE update: 2 days ago

TLE from 2 days ago
0 OPS 4682 DEB
1 15340U 65027R   26206.43713502  .00000821  00000-0  27298-2 0  9995
2 15340  90.2392   6.5565 0033665 284.2246 105.0175 12.99171860988499
Epoch: 2026-07-25T10:29Z
TLE epoch observation values (Epoch: 2026-07-25T10:29:28.465Z)
Latitude
29.65872°
Longitude
-94.09706°
Altitude
1,275.788 km
Speed
7.217 km/s
True Right ascension
00h 25m 41s
True Declination
29° 31' 16"
Sunlit
Object was in daylight at epoch
Visualization orbit readout
Latitude
Unknown
Longitude
Unknown
Altitude
Unknown
Speed
Unknown
Apparent Right ascension
Unknown
Apparent Declination
Unknown
Sunlit
N/A
Visualization observer readout
Local Sidereal Time
18:59:34
Azimuth
Unknown
Elevation
Unknown
Doppler factor
Unknown
Orbital elements
Apogee altitude
1,288.183 km
Perigee altitude
1,236.739 km
Semi-major axis
7,640.598 km
Eccentricity
0.00337
Inclination
90.2392°
RAAN
6.5565°
Arg. of periapsis
284.2246°
True anomaly
105.38969°
Mean anomaly
105.0175°
Eccentric anomaly
105.20364°
Mean motion
3.24977 °/min
Orbital period
110.78 mins
BSTAR
0.0027298
Loading maneuver chart data...
Computing Atmospheric mass density...
Loading historical data...
Loading historical data...
Loading historical data...
Loading historical data...
Loading historical data...
Loading historical data...
Loading historical data...

Documentation

Showing up to 5 results
|